Regional Weather Roundup
Issued by NWS Kansas City/Pleasant Hill, MO

Home | Current Version | Previous Version | Text Only | Print | Product List | Glossary On
Versions: 1 2 3 4 5 6 7 8 9 10 11 12 13 14 15 16 17 18 19 20 21 22 23 24 25 26 27 28 29 30 31 32 33 34 35 36 37 38 39 40 41 42 43 44 45 46 47 48 49 50
000
ASUS43 KEAX 260810
RWREAX

WEATHER ROUNDUP FOR EASTERN KANSAS AND NORTHWEST MISSOURI
NATIONAL WEATHER SERVICE KANSAS CITY/PLEASANT HILL MO
200 AM CST WED NOV 26 2014

KSZ040-057-103>105-MOZ028-029-037-043-260900-
...KANSAS CITY METROPOLITAN AREA...

CITY           SKY/WX    TMP DP  RH WIND       PRES   REMARKS
K.C. INTL      CLOUDY    39  22  50 S14       29.92F WCI  31
K.C. DOWNTOWN  CLOUDY    40  22  48 S8        29.95F WCI  34
LEES SUMMIT    CLOUDY    38  21  50 S12       29.95F WCI  30
OLATHE - IXD   CLOUDY    37  23  56 S12       29.93F WCI  29
OLATHE - OJC   CLOUDY    38  22  52 S7        29.94S WCI  33
LAWRENCE       CLOUDY    40  23  50 S14       29.93F WCI  32

$$

MOZ001>008-011>017-020>025-030>033-038>040-044>046-053-054-260900-
...NORTHERN AND CENTRAL MISSOURI...

CITY           SKY/WX    TMP DP  RH WIND       PRES   REMARKS
ST. JOSEPH     CLOUDY    39  24  55 SE10      29.92F WCI  32
MOSBY          CLOUDY    36  23  60 SE3       29.97S
WARRENSBURG    MOCLDY    34  23  64 SE7       29.97F WCI  28
WHITEMAN AFB   MOCLDY    34  22  59 S8        29.97F WCI  28
CLINTON        PTCLDY    34  25  69 S3        30.00S
SEDALIA        MOCLDY    34  21  59 S9        30.00F WCI  27
WARSAW         NOT AVBL
MARSHALL       PTCLDY    32  25  74 SE6       30.01S WCI  26
CHILLICOTHE      N/A     34  21  59 S5        30.00F WCI  30
KIRKSVILLE     MOCLDY    28  21  75 SE8       30.01F WCI  20

$$

MOZ041-047>049-056>058-063>065-088>090-097-260900-
...EASTERN AND SOUTHERN MISSOURI...

CITY           SKY/WX    TMP DP  RH WIND       PRES   REMARKS
ST. LOUIS INTL MOCLDY    27  22  81 E8        30.11F WCI  19
SPIRIT OF STL  CLEAR     24  21  88 CALM      30.10F
COLUMBIA       PTCLDY    27  18  69 SE8       30.04F WCI  19
JEFFERSON CITY PTCLDY    23  19  85 SE7       30.06F WCI  15
MEXICO         PTCLDY    28  25  86 SE7       30.05F WCI  21
ROLLA          MOCLDY    28  18  66 S7        30.04F WCI  21
LEBANON        FAIR      28  19  69 SE7       30.02F WCI  21
OSAGE BEACH    PTCLDY    27  18  69 SE7       30.03F WCI  19
SPRINGFIELD    CLEAR     30  21  69 SE10      30.00F WCI  21
BRANSON        CLEAR     36  23  60 S8        30.04F WCI  29
NEVADA         MOCLDY    34  25  69 S12       29.98F WCI  25
JOPLIN         MOCLDY    37  22  54 S12       30.00F WCI  29
WEST PLAINS    PTCLDY    25  20  81 SE3       30.08F

$$

IAZ060-094-KSZ022-034>040-054-083-096-NEZ052-066-093-260900-
...KANSAS...SOUTHEAST NEBRASKA AND IOWA...

CITY           SKY/WX    TMP DP  RH WIND       PRES   REMARKS
TOPEKA         CLOUDY    43  24  47 S17G23    29.90F
MANHATTAN      LGT RAIN  46  30  53 W14G22    29.94R
EMPORIA        CLOUDY    39  24  55 S12       29.93R WCI  32
CHANUTE        CLOUDY    40  26  57 S7        29.96F
WICHITA        CLOUDY    41  28  60 SW8       29.96R
OMAHA          DRIZZLE   35  34  96 S6        29.83F WCI  30
LINCOLN        PTCLDY    38  32  79 W6        29.88R WCI  33
FALLS CITY     LGT RAIN  40  31  70 S10       29.89F WCI  33
LAMONI         LGT SNOW  31  25  78 S8        29.95S WCI  23
DES MOINES     CLOUDY    33  18  53 S6        29.96S WCI  28

$$




USA.gov is the U.S. government's official web portal to all federal, state and local government web resources and services.